Showing default

OPS 4988 (GREB 6), 1271

Orbit data source: Space-Track

OPS 4988 (GREB 6), 1271 is an American payload satellite in LEO that was launched on Tue, 09 Mar 1965 UTC via a THOR SLV-2 AGENA D launch vehicle from the Air Force Western Test Range (AFWTR). Payload-class satellites include a variety of spacecraft equipped with specific instruments for various scientific and technological missions. These include communications satellites like Starlink; space stations such as the ISS; scientific satellites like the Hubble; Earth observation satellites from companies like Planet Labs, Umbra, and HawkEye 360; GPS; miniature CubeSats for education and research; and military/defense satellites.

Loading next visibility...
Identifier
1271, 1965-016A
Orbit
LEO
Country
Flag of USUS
Related business
Manufacturer
NRL
Mission
Spacecraft
Bus & Motor
NRL 24", Unknown motor
Mass
48 kg wet, 48 kg dry
Launch date (UTC)
1965-03-09 (61 years ago)
Launch vehicle
THOR SLV-2 AGENA D
Launch site
Air Force Western Test Range (AFWTR)
Object type
Payload
Rocket body
Debris
Shape & HBR
Unknown
Radar Cross Section
Medium (>0.1 m² and <1 m²)

Expand to show TLE details & history
Last TLE update: 5 hours ago

TLE from 5 hours ago
0 OPS 4988 (GREB 6)
1 01271U 65016A   25310.32770073  .00000076  00000-0  92306-4 0  9996
2 01271  70.0787 273.2261 0020898 354.4314 114.4328 13.96607699 87695
Epoch: 2025-11-06T07:51Z
TLE epoch observation values (Epoch: 2025-11-06T07:51:53.343Z)
Latitude
62.79235°
Longitude
-115.06234°
Altitude
922.069 km
Speed
7.394 km/s
True Right ascension
03h 14m 47s
True Declination
62° 39' 19"
Sunlit
Object was in full shadow at epoch
Visualization orbit readout
Latitude
Unknown
Longitude
Unknown
Altitude
Unknown
Speed
Unknown
Apparent Right ascension
Unknown
Apparent Declination
Unknown
Sunlit
N/A
Visualization observer readout
Local Sidereal Time
09:01:42
Azimuth
Unknown
Elevation
Unknown
Doppler factor
Unknown
Orbital elements
Apogee altitude
918.818 km
Perigee altitude
888.383 km
Semi-major axis
7,281.737 km
Eccentricity
0.00209
Inclination
70.0787°
RAAN
273.2261°
Arg. of periapsis
354.4314°
True anomaly
114.65059°
Mean anomaly
114.4328°
Eccentric anomaly
114.54172°
Mean motion
3.49294 °/min
Orbital period
103.07 mins
BSTAR
0.000092306
Loading maneuver chart data...
Computing Atmospheric mass density...
Loading historical data...
Loading historical data...
Loading historical data...
Loading historical data...
Loading historical data...
Loading historical data...
Loading historical data...

Documentation

Showing up to 5 results
|